#timestamp,LO_Frequency,Hit,StdDev 
1589623215.3,286046998.9,N
1589623235.2,286046996.9,N
1589623255.0,286046999.1,N
1589623255.9,286046999.1,N
1589623275.8,286047000.9,N
1589623295.6,286047000.1,N
1589623315.4,286047004.4,N
1589623335.3,286047001.6,N
1589623355.1,286047001.7,N
1589623375.8,286047001.9,N
1589623395.7,286047001.8,N
1589623415.5,286047003.6,N
1589623435.4,286047005.6,Y
1589623455.2,286047001.8,P
1589623475.0,286047002.7,P
1589623475.9,286047002.7,N
1589623495.8,286047001.0,N
1589623515.6,286047000.8,N
1589623535.4,286047000.3,N
1589623555.3,286047002.4,N
1589623575.1,286047002.6,N
1589623595.9,286047003.5,Y
1589623615.7,286047003.6,P
1589623635.5,286047006.9,P
1589623655.4,286047007.0,P
1589623675.2,286047005.1,N
1589623695.0,286047007.4,Y
1589623696.0,286047007.4,P
1589623715.8,286047001.5,N
1589623735.6,286047003.9,N
1589623755.5,286047003.4,N
1589623775.3,286047001.4,N
1589623795.1,286047001.9,N
1589623815.9,286047002.3,N
1589623835.7,286047000.4,N
1589623855.5,286047000.8,N
1589623875.4,286047001.1,N
1589623895.2,286046999.1,N
1589623915.1,286046997.0,N
1589623916.0,286046997.0,N
1589623935.8,286046997.6,N
1589623955.6,286046995.8,N
1589623975.5,286046993.9,N
1589623995.3,286046991.8,N
1589624015.2,286046992.7,N
1589624035.9,286046990.2,N
1589624055.7,286046991.0,N
1589624075.6,286046991.3,N
1589624095.4,286046991.0,N
1589624115.2,286046989.3,N
1589624135.1,286046989.0,N
1589624136.0,286046989.0,N
1589624155.8,286046988.6,N
1589624175.6,286046988.7,N
1589624195.5,286046991.4,N
1589624215.3,286046988.9,N
1589624235.2,286046988.8,N
1589624255.9,286046986.9,N
1589624275.7,286046987.7,N
1589624295.6,286046989.3,N
1589624315.4,286046989.4,N
1589624335.2,286046988.8,N
1589624355.1,286046992.8,N
1589624356.0,286046992.8,N
1589624375.8,286046992.6,N
1589624395.7,286046994.2,N
1589624415.5,286046991.9,N
1589624435.3,286046993.2,N
1589624455.2,286046990.3,Y
1589624475.0,286047001.1,P
1589624475.9,286047001.1,N
1589624495.7,286046998.1,N
1589624515.6,286046999.0,N
1589624535.4,286046999.2,N
1589624555.3,286046997.1,N
1589624575.1,286046997.8,N
1589624576.0,286046997.8,N
1589624595.8,286046997.3,N
1589624615.7,286046997.3,N
1589624635.5,286046997.9,N
1589624655.3,286046995.8,N
1589624675.2,286046993.4,N
1589624695.0,286046995.7,N
1589624695.9,286046995.7,N
1589624715.8,286046996.2,N
1589624735.6,286046993.8,N
1589624755.4,286046994.0,N
1589624775.3,286046991.9,Y
1589624795.1,286046996.9,P
1589624815.8,286047000.6,P
1589624835.7,286047001.4,N
1589624855.5,286047001.4,N
1589624875.4,286047001.9,N
1589624895.2,286047002.3,N
1589624915.0,286047000.3,N
1589624915.9,286047000.3,N
1589624935.8,286046998.6,N
1589624955.6,286046998.9,N
1589624975.4,286046999.1,N
1589624995.3,286046999.8,N
1589625015.1,286047000.7,N
1589625035.8,286046998.2,N
1589625055.7,286047000.6,N
1589625075.5,286046999.2,N
1589625095.4,286046999.6,N
1589625115.2,286046997.0,N
1589625135.0,286046995.3,N
1589625135.9,286046995.3,N
1589625155.8,286046996.8,N
1589625175.6,286046996.5,N
1589625195.4,286046996.9,N
1589625215.3,286046999.1,N
1589625235.1,286046997.1,N
1589625255.9,286046997.7,N
1589625275.7,286046997.6,N
1589625295.5,286046995.3,N
1589625315.4,286046994.9,N
1589625335.2,286046995.7,N
1589625355.0,286046996.6,N
1589625355.9,286046996.6,N
1589625375.8,286047001.2,N
1589625395.6,286047000.2,N
1589625415.5,286047004.4,N
1589625435.3,286047001.6,N
1589625455.1,286047003.3,N
1589625475.9,286047005.1,N
1589625495.7,286047002.9,N
1589625515.5,286047003.1,N
1589625535.4,286046999.7,N
1589625555.2,286046999.1,N
1589625575.0,286046997.1,N
1589625576.0,286046997.1,N
1589625595.8,286046997.7,N
1589625615.6,286046997.4,N
1589625635.5,286046995.0,N
1589625655.3,286046994.9,N
1589625675.1,286046994.9,N
1589625695.9,286046998.0,N
1589625715.7,286046995.8,N
1589625735.5,286046995.6,N
1589625755.4,286046995.1,N
1589625775.2,286046994.3,N
1589625795.1,286046994.0,N
1589625796.0,286046994.0,N
1589625815.8,286046996.1,N
1589625835.6,286046993.4,N
1589625855.5,286046995.9,N
1589625875.3,286046995.5,N
1589625895.1,286046996.1,N
1589625915.9,286046995.9,N
1589625935.7,286046997.2,N
1589625955.6,286046999.6,N
1589625975.4,286046999.5,N
1589625995.2,286046999.1,N
1589626015.1,286046997.0,N
1589626016.0,286046997.0,N
1589626035.8,286046997.1,N
1589626055.7,286046997.1,N
1589626075.5,286046996.7,N
1589626095.3,286046997.8,N
1589626115.2,286046995.8,N
1589626135.0,286046995.3,Y
1589626135.9,286046995.3,P
1589626155.8,286047001.2,N
1589626175.6,286046998.1,N
1589626195.4,286046998.3,N
1589626215.3,286047000.0,N
1589626235.1,286047000.4,N
1589626255.8,286047002.2,N
1589626275.7,286047002.7,N
1589626295.5,286047000.7,N
1589626315.4,286047000.9,N
1589626335.2,286047000.2,N
1589626355.0,286047000.4,N
1589626355.9,286047000.4,N
1589626375.8,286047000.6,N
1589626395.6,286046998.5,N
1589626415.4,286046998.2,N
1589626435.3,286047000.1,N
1589626455.1,286047002.4,N
1589626475.9,286047002.1,N
1589626495.7,286047001.5,N
1589626515.5,286046999.8,N
1589626535.4,286047000.7,N
1589626555.2,286047002.6,N
1589626575.0,286047003.1,N
1589626575.9,286047003.1,N
1589626595.8,286047005.8,N
1589626615.6,286047004.6,N
1589626635.5,286047002.0,N
1589626655.3,286047002.8,N
1589626675.1,286047000.1,N
1589626695.9,286047001.1,N
1589626715.7,286046999.7,N
1589626735.5,286047002.1,N
1589626755.4,286047002.3,N
1589626775.2,286047001.7,N
1589626795.0,286047001.7,N
1589626795.9,286047001.7,N
